Location: Isle of Man Observatory
(54.1776°N, 4.6264°W)
Time: 14:30:29
(UTC+02:00)

ARIANE 6 FM1 Upper Stage - Pass Details

Date: 16 April 2026
Orbit: 526 x 601 km, 62.0° (Epoch: 19 May)

Event Time Altitude Azimuth Distance (km) Brightness Sun altitude
Rises 23:32:17 0° 278° (W) 2,706 7.0 -16.6°
Reaches altitude 10° 23:34:45 10° 291° (WNW) 1,803 6.2 -16.8°
Maximum altitude 23:38:16 28° 351° (N) 1,029 4.6 -17.2°
Drops below altitude 10° 23:41:45 10° 52° (NE) 1,783 5.2 -17.5°
Sets 23:44:11 0° 64° (ENE) 2,670 6.0 -17.7°
